Simultaneous Nadir Overpasses (SNOs) Predictions

Prediction of SNOs between GOES-16 and NPP Satellite Orbit:

Table of predicted SNOs for the next 14.0 days since TLE Epoch: 3/2/2024
Index Date Time (GOES-16) GOES-16 Lat,Lon NPP Lat,Lon Distance(km) Time Diff (sec)
1 03/03/2024 06:45:16 -0.07, -75.21 0.88, -79.49 488.58 80
2 03/04/2024 06:23:51 -0.07, -75.21 -0.13, -74.96 28.48 80
3 03/06/2024 18:26:59 0.05, -75.22 -0.06, -75.72 56.36 80
4 03/07/2024 18:10:54 0.05, -75.23 0.96, -71.18 461.24 80
5 03/09/2024 06:32:40 -0.04, -75.23 0.22, -76.45 137.85 80
6 03/10/2024 06:11:15 -0.04, -75.24 -0.81, -71.91 380.03 80
7 03/11/2024 18:33:09 0.04, -75.27 -0.40, -77.20 220.85 80
8 03/12/2024 18:17:04 0.04, -75.28 0.63, -72.67 297.58 80
9 03/14/2024 06:38:50 -0.04, -75.30 0.54, -77.94 300.16 80
10 03/15/2024 06:17:24 -0.04, -75.31 -0.49, -73.40 218.34 80
